sat.trackr.live / text

‹ back to catalog

STARLINK-11530 [DTC]

NORAD 62562 · 2025-006J

PAYLOAD ACTIVE UNKNOWN

§ Identity

Operator
Country
US
Launch date
2025-01-10
Launch site
AFETR
Launch vehicle
Mass (kg)
RCS (m²)

Purposes: comms

External: N2YO · Heavens-Above · Gunter

§ Orbital elements

Epoch: 2026-05-24T16:57:57.450816Z

Period
91.66 min
Inclination
43.0014°
Eccentricity
0.0004009
Mean motion
15.70975718 rev/d
Perigee alt
353.4 km
Apogee alt
358.8 km
Semi-major
6,734.2 km
B*
1.5856e-3
RAAN
42.0703°
Arg perigee
275.4413°
Mean anomaly
84.5998°
Rev number
7,855

§ Raw data

STARLINK-11530 [DTC]1 62562U 25006J   26144.70691494  .00209456  00000+0  15856-2 0  99932 62562  43.0014  42.0703 0004009 275.4413  84.5998 15.70975718 78558

JSON: /api/v1/satellites/62562 · /tle

For live sub-satellite position, see the globe view (requires WebGL).

§ Visibility from observer

Set your observer location to see the next 7 days of passes ≥ 10°. The values pass through the URL so the page stays shareable.

No JS? Fill the form by hand. The geolocation button needs JavaScript.